Location: Runa
(38.1429°N, 80.8510°W)
Time: 13:00:46
(UTC+00:00)

ISS - Pass Details

Date: 17 April 2026
Orbit: 414 x 424 km, 51.6° (Epoch: 12 May)

Event Time Altitude Azimuth Distance (km) Brightness Sun altitude
Exits shadow 08:50:00 10° 142° (SE) 1,494 -0.9 -21.5°
Reaches altitude 10° 08:50:04 10° 141° (SE) 1,488 -0.9 -21.4°
Maximum altitude 08:50:52 11° 127° (SE) 1,450 -0.8 -21.3°
Drops below altitude 10° 08:51:41 10° 113° (ESE) 1,493 -0.6 -21.2°
Sets 08:55:15 0° 73° (ENE) 2,366 1.4 -20.6°
